Location: Street
(51.1247°N, 2.7429°W)
Time: 03:05:34
(UTC+00:00)

deb Explorer IX - Pass Details

Date: 06 December 2020
Orbit: 536 x 1104 km, 38.8° (Epoch: 20 January)

Event Time Altitude Azimuth Distance (km) Brightness Sun altitude
Rises 17:15:39 0° 258° (WSW) 3,729 ? -10.5°
Reaches altitude 10° 17:19:06 10° 244° (WSW) 2,685 ? -11.0°
Maximum altitude 17:23:42 21° 198° (SSW) 1,876 ? -11.7°
Drops below altitude 10° 17:27:52 10° 151° (SSE) 2,388 ? -12.3°
Sets 17:30:44 0° 136° (SE) 3,207 ? -12.7°
